Ephrata, WA

10:38 PM PDT on May 22, 2017 (GMT -0700)
Ephrata Municipal

Weather History for KEPH - January, 2014

Change the Weather History Date:

Wednesday, January 29, 2014

  Actual Average Record
Temperature  
Mean Temperature 28 °F 31 °F  
Max Temperature 33 °F 38 °F 55 °F (1953)
Min Temperature 23 °F 24 °F -22 °F (1950)
Degree Days  
Heating Degree Days 37 34  
Month to date heating degree days 950 1054  
Since 1 July heating degree days 3535 3640  
Cooling Degree Days 0 0  
Month to date cooling degree days 0 0  
Year to date cooling degree days 0 0  
Moisture  
Dew Point 28 °F    
Average Humidity 85    
Maximum Humidity 92    
Minimum Humidity 78    
Precipitation  
Precipitation 0.24 in 0.02 in 0.42 in (1958)
Month to date precipitation 0.31 0.86  
Year to date precipitation 0.31 0.86  
Sea Level Pressure  
Sea Level Pressure 29.81 in    
Wind  
Wind Speed 6 mph (North)    
Max Wind Speed 9 mph    
Max Gust Speed 12 mph    
Visibility 5 miles    
Events Fog , Rain , Snow    
T = Trace of Precipitation, MM = Missing Value Source: NWS Daily Summary

Daily Weather History Graph

Daily Weather History Graph

Search for Another Location

Airport or City:

Trip Planner

Search our weather history database for the weather conditions in past years. The results will help you decide how hot, cold, wet, or windy it might be!

Date:

Astronomy

Jan. 29, 2014 Rise Set
Actual Time 7:27 AM PST 4:55 PM PST
Civil Twilight 6:54 AM PST 5:28 PM PST
Nautical Twilight 6:17 AM PST 6:05 PM PST
Astronomical Twilight 5:41 AM PST 6:41 PM PST
Moon 6:08 AM PST (1/29) 4:01 PM PST (1/29)
Length of Visible Light 10h 34m
Length of Day
9h 28m
Waning Crescent, 2% of the Moon is Illuminated
Jan 29
Waning Crescent
Jan 30
New
Feb 6
First Quarter
Feb 14
Full
Feb 22
Last Quarter

Hourly Weather History & Observations

Time (PST) Temp. Windchill Dew Point Humidity Pressure Visibility Wind Dir Wind Speed Gust Speed Precip Events Conditions
12:18 AM 30.2 °F 24.3 °F 28.4 °F 93% 30.07 in 3.0 mi North 5.8 mph - 0.02 in Rain Light Freezing Rain
12:26 AM 30.2 °F 23.4 °F 28.4 °F 93% 30.06 in 4.0 mi North 6.9 mph - 0.03 in   Mist
12:53 AM 30.9 °F 24.3 °F 28.9 °F 92% 30.07 in 2.5 mi North 6.9 mph - 0.05 in   Mist
1:06 AM 30.2 °F 22.6 °F 28.4 °F 93% 30.02 in 3.0 mi North 8.1 mph - 0.01 in   Mist
1:19 AM 30.2 °F 23.4 °F 28.4 °F 93% 30.01 in 2.0 mi North 6.9 mph - 0.02 in Snow Light Snow
1:29 AM 30.2 °F 23.4 °F 28.4 °F 93% 30.01 in 1.5 mi NNW 6.9 mph - 0.03 in Snow Light Snow
1:53 AM 30.9 °F 25.2 °F 28.9 °F 92% 30.03 in 0.8 mi North 5.8 mph - 0.07 in Snow Light Snow
2:43 AM 30.2 °F 22.6 °F 28.4 °F 93% 29.97 in 1.0 mi North 8.1 mph - 0.06 in Snow Light Snow
2:53 AM 30.9 °F 24.3 °F 28.9 °F 92% 30.00 in 1.0 mi North 6.9 mph - 0.07 in Snow Light Snow
3:35 AM 30.2 °F 23.4 °F 28.4 °F 93% 29.93 in 2.0 mi North 6.9 mph - 0.01 in Snow Light Snow
3:53 AM 30.9 °F 24.3 °F 27.0 °F 85% 29.96 in 1.8 mi North 6.9 mph - 0.02 in Snow Light Snow
4:00 AM 30.2 °F 24.3 °F 28.4 °F 93% 29.92 in 2.0 mi NNW 5.8 mph - 0.00 in Snow Light Snow
4:46 AM 30.2 °F 24.3 °F 26.6 °F 86% 29.89 in 3.0 mi NNW 5.8 mph - 0.01 in Snow Light Snow
4:53 AM 30.0 °F 23.2 °F 27.0 °F 88% 29.93 in 4.0 mi NNW 6.9 mph - 0.01 in Snow Light Snow
5:53 AM 30.9 °F 25.2 °F 27.0 °F 85% 29.91 in 4.0 mi NW 5.8 mph - 0.00 in Snow Light Snow
6:53 AM 30.0 °F 23.2 °F 26.1 °F 85% 29.89 in 10.0 mi WNW 6.9 mph - 0.00 in   Unknown
7:53 AM 28.9 °F 25.2 °F 26.1 °F 89% 29.86 in 10.0 mi WNW 3.5 mph - N/A   Unknown
8:53 AM 28.0 °F 22.8 °F 27.0 °F 96% 29.86 in 10.0 mi SSW 4.6 mph - N/A   Unknown
9:53 AM 28.0 °F 22.8 °F 27.0 °F 96% 29.83 in 1.5 mi South 4.6 mph - N/A   Mist
10:02 AM 28.4 °F 24.6 °F 26.6 °F 93% 29.78 in 0.2 mi SSE 3.5 mph - N/A Fog Light Freezing Fog
10:45 AM 30.2 °F - 28.4 °F 93% 29.77 in 0.5 mi Calm Calm - N/A Fog Light Freezing Fog
10:53 AM 30.0 °F - 28.0 °F 92% 29.81 in 0.8 mi Calm Calm - N/A   Mist
11:00 AM 30.2 °F - 28.4 °F 93% 29.77 in 1.2 mi Calm Calm - N/A   Mist
11:20 AM 30.2 °F - 28.4 °F 93% 29.77 in 3.0 mi Calm Calm - N/A   Mist
11:53 AM 30.9 °F 27.5 °F 28.9 °F 92% 29.78 in 8.0 mi SE 3.5 mph - N/A   Unknown
12:53 PM 33.1 °F - 28.9 °F 85% 29.75 in 10.0 mi Calm Calm - N/A   Unknown
1:26 PM 32.0 °F - 28.4 °F 87% 29.70 in 10.0 mi Calm Calm - N/A   Overcast
1:53 PM 32.0 °F 27.5 °F 28.9 °F 88% 29.73 in 10.0 mi ESE 4.6 mph - N/A   Overcast
2:53 PM 30.9 °F 24.3 °F 28.9 °F 92% 29.71 in 5.0 mi NE 6.9 mph - 0.00 in Snow Light Snow
3:15 PM 30.2 °F 25.4 °F 28.4 °F 93% 29.67 in 1.8 mi NE 4.6 mph - 0.00 in Snow Light Snow
3:36 PM 30.2 °F 26.7 °F 28.4 °F 93% 29.68 in 2.0 mi NE 3.5 mph - 0.01 in Snow Light Snow
3:43 PM 32.0 °F 27.5 °F 28.4 °F 87% 29.67 in 2.5 mi NE 4.6 mph - 0.01 in Snow Light Snow
3:53 PM 32.0 °F 26.4 °F 28.9 °F 88% 29.72 in 1.8 mi NNE 5.8 mph - 0.01 in Snow Light Snow
3:58 PM 30.2 °F 26.7 °F 28.4 °F 93% 29.68 in 1.8 mi NNE 3.5 mph - 0.00 in Snow Light Snow
4:06 PM 32.0 °F 26.4 °F 28.4 °F 87% 29.68 in 1.0 mi NNE 5.8 mph - 0.00 in Snow Light Snow
4:31 PM 30.2 °F 22.6 °F 28.4 °F 93% 29.67 in 1.2 mi North 8.1 mph - 0.01 in Snow Light Snow
4:36 PM 30.2 °F 23.4 °F 28.4 °F 93% 29.67 in 3.0 mi NNE 6.9 mph - 0.01 in Snow Light Snow
4:53 PM 30.9 °F 24.3 °F 28.0 °F 89% 29.72 in 6.0 mi North 6.9 mph - 0.01 in   Overcast
5:53 PM 30.9 °F 25.2 °F 28.0 °F 89% 29.72 in 10.0 mi North 5.8 mph - 0.00 in   Overcast
6:45 PM 30.2 °F 25.4 °F 28.4 °F 93% 29.69 in 10.0 mi North 4.6 mph - N/A   Overcast
6:53 PM 30.9 °F 26.2 °F 28.0 °F 89% 29.73 in 10.0 mi North 4.6 mph - N/A   Overcast
7:06 PM 30.2 °F 26.7 °F 28.4 °F 93% 29.69 in 10.0 mi North 3.5 mph - N/A   Overcast
7:25 PM 30.2 °F 24.3 °F 28.4 °F 93% 29.69 in 10.0 mi NW 5.8 mph - N/A   Overcast
7:53 PM 32.0 °F 24.8 °F 27.0 °F 82% 29.74 in 10.0 mi NNW 8.1 mph - N/A   Overcast
8:29 PM 32.0 °F 24.8 °F 28.4 °F 87% 29.71 in 2.0 mi NNW 8.1 mph - 0.00 in Snow Light Snow
8:40 PM 32.0 °F 26.4 °F 28.4 °F 87% 29.71 in 4.0 mi NNW 5.8 mph - 0.00 in Snow Light Snow
8:53 PM 30.9 °F 23.5 °F 27.0 °F 85% 29.75 in 9.0 mi NW 8.1 mph - 0.00 in   Overcast
9:53 PM 30.9 °F 24.3 °F 27.0 °F 85% 29.76 in 10.0 mi West 6.9 mph - N/A   Overcast
10:53 PM 28.9 °F 21.1 °F 27.0 °F 92% 29.78 in 10.0 mi SW 8.1 mph - N/A   Overcast
11:53 PM 23.0 °F 18.4 °F 21.0 °F 92% 29.79 in 9.0 mi WSW 3.5 mph - N/A   Clear